Weather History for TNCC - November, 2013

Change the Weather History Date:

Saturday, November 30, 2013

  Actual Average Record
Temperature  
Mean Temperature 82 °F -  
Max Temperature 86 °F 84 °F 89 °F (1998)
Min Temperature 78 °F 75 °F 72 °F (2012)
Cooling Degree Days 17    
Growing Degree Days 32 (Base 50)    
Moisture  
Dew Point 72 °F    
Average Humidity 73    
Maximum Humidity 83    
Minimum Humidity 59    
Precipitation  
Precipitation 0.12 in 0.13 in - ()
Sea Level Pressure  
Sea Level Pressure 29.87 in    
Wind  
Wind Speed 9 mph ()    
Max Wind Speed 14 mph    
Max Gust Speed -    
Visibility 6.2 miles    
Events Rain    
Averages and records for this station are not official NWS values.
T = Trace of Precipitation, MM = Missing Value Source: Averaged Metar Reports

Daily Weather History Graph

Daily Weather History Graph

Search for Another Location

Airport or City:

Trip Planner

Search our weather history database for the weather conditions in past years. The results will help you decide how hot, cold, wet, or windy it might be!

Date:

Astronomy

Nov. 30, 2013 Rise Set
Actual Time 6:40 AM AST 6:08 PM AST
Civil Twilight 6:17 AM AST 6:31 PM AST
Nautical Twilight 5:51 AM AST 6:57 PM AST
Astronomical Twilight 5:25 AM AST 7:23 PM AST
Moon 4:10 AM AST (11/30) 4:11 PM AST (11/30)
Length of Visible Light 12h 13m
Length of Day
11h 28m
Waning Crescent, 7% of the Moon is Illuminated
Nov 30
Waning Crescent
Dec 2
New
Dec 9
First Quarter
Dec 17
Full
Dec 25
Last Quarter

Hourly Weather History & Observations

Time (AST) Temp. Heat Index Dew Point Humidity Pressure Visibility Wind Dir Wind Speed Gust Speed Precip Events Conditions
12:00 AM 80.6 °F 84.6 °F 71.6 °F 74% 29.89 in 6.2 mi East 12.7 mph - N/A   Scattered Clouds
1:00 AM 80.6 °F 84.6 °F 71.6 °F 74% 29.89 in 6.2 mi East 11.5 mph - N/A   Scattered Clouds
2:00 AM 80 °F - 71 °F 66% 29.87 in 31 mi East 11.5 mph - -   Partly Cloudy
2:00 AM 80.6 °F 84.6 °F 71.6 °F 74% 29.86 in 6.2 mi East 12.7 mph - N/A   Scattered Clouds
3:00 AM 80.6 °F 84.6 °F 71.6 °F 74% 29.86 in 6.2 mi ENE 13.8 mph - N/A   Scattered Clouds
4:00 AM 78.8 °F - 73.4 °F 83% 29.86 in 6.2 mi East 10.4 mph - N/A   Scattered Clouds
5:00 AM 80 °F - 71 °F 67% 29.86 in 31 mi East 9.2 mph - -   Partly Cloudy
5:00 AM 78.8 °F - 71.6 °F 78% 29.86 in 6.2 mi East 9.2 mph - N/A   Scattered Clouds
6:00 AM 80.6 °F 84.6 °F 71.6 °F 74% 29.86 in 6.2 mi East 9.2 mph - N/A   Scattered Clouds
7:00 AM 78.8 °F - 71.6 °F 78% 29.89 in 6.2 mi East 10.4 mph - N/A   Partly Cloudy
8:00 AM 81 °F - 73 °F 70% 29.92 in 31 mi East 10.4 mph - -   Partly Cloudy
8:00 AM 80.6 °F 85.4 °F 73.4 °F 79% 29.92 in 6.2 mi East 10.4 mph - N/A   Scattered Clouds
9:00 AM 84.2 °F 90.9 °F 73.4 °F 70% 29.92 in 6.2 mi East 8.1 mph - N/A   Scattered Clouds
10:00 AM 84.2 °F 89.6 °F 71.6 °F 66% 29.95 in 6.2 mi East 9.2 mph - N/A   Scattered Clouds
11:00 AM 86 °F - 74 °F 59% 29.94 in 31 mi ESE 10.4 mph - -   Partly Cloudy
11:00 AM 86.0 °F 93.4 °F 73.4 °F 66% 29.92 in 6.2 mi East 9.2 mph - N/A   Scattered Clouds
12:00 PM 86.0 °F 93.4 °F 73.4 °F 66% 29.92 in 6.2 mi East 9.2 mph - N/A   Scattered Clouds
1:00 PM 84.2 °F 89.6 °F 71.6 °F 66% 29.89 in 6.2 mi East 8.1 mph - N/A   Scattered Clouds
2:00 PM 84 °F - 72 °F 60% 29.86 in 31 mi East 10.4 mph - -   Partly Cloudy
2:00 PM 84.2 °F 90.9 °F 73.4 °F 70% 29.86 in 6.2 mi East 10.4 mph - N/A   Scattered Clouds
3:00 PM 82.4 °F 88.2 °F 73.4 °F 74% 29.83 in 6.2 mi East 10.4 mph - N/A   Scattered Clouds
4:00 PM 82.4 °F 87.2 °F 71.6 °F 70% 29.80 in 6.2 mi East 12.7 mph - N/A   Mostly Cloudy
5:00 PM 80 °F - 74 °F 76% 29.82 in 31 mi ENE 5.8 mph - - Rain Light Rain Showers
5:00 PM 80.6 °F 85.4 °F 73.4 °F 79% 29.80 in 6.2 mi ENE 5.8 mph - N/A   Mostly Cloudy
6:00 PM 78.8 °F - 73.4 °F 83% 29.83 in 6.2 mi ENE 6.9 mph - N/A   Scattered Clouds
7:00 PM 78.8 °F - 73.4 °F 83% 29.83 in 6.2 mi ESE 4.6 mph - N/A   Scattered Clouds
8:00 PM 78 °F - 73 °F 80% 29.85 in 31 mi ENE 6.9 mph - -   Partly Cloudy
8:00 PM 78.8 °F - 73.4 °F 83% 29.83 in 6.2 mi ENE 6.9 mph - N/A   Scattered Clouds
9:00 PM 78.8 °F - 71.6 °F 78% 29.86 in 6.2 mi East 8.1 mph - N/A   Partly Cloudy
10:00 PM 78.8 °F - 71.6 °F 78% 29.89 in 6.2 mi East 8.1 mph - N/A   Partly Cloudy
11:00 PM 80 °F - 71 °F 67% 29.90 in 31 mi East 4.6 mph - -   Scattered Clouds
11:00 PM 78.8 °F - 69.8 °F 74% 29.89 in 6.2 mi East 8.1 mph - N/A   Partly Cloudy